(148) Gallia(148) Gallia Epoch 2008 Nov. 30.0 TT = JDT 2454800.5 MPC M 273.60000 (2000.0) P Q n 0.21339768 Peri. 251.89693 +0.74618104 -0.61927128 a 2.7733814 Node 145.13244 +0.64548260 +0.76283778 e 0.1858200 Incl. 25.30642 -0.16299100 +0.18596131 P 4.62 H 7.63 G 0.15 U 0 From 1350 observations at 57 oppositions, 1879-2007, mean residual 0".66.An explanation of the orbital elements is available.
These orbital elements are also available in forms suitable for loading into a number of popular planetarium-type software programs.
Personalized ephemerides for this object (and others) can be generated using the MPES.
Date TT R. A. (2000) Decl. Delta r Elong. Phase V 2009 07 30 00 48.24 -08 54.1 1.733 2.391 118.5 21.9 11.8 2009 08 04 00 51.38 -09 53.0 1.678 2.383 122.6 21.0 11.7 2009 08 09 00 53.99 -10 58.4 1.626 2.376 126.8 20.0 11.6 2009 08 14 00 56.01 -12 10.4 1.578 2.369 131.0 18.8 11.5 2009 08 19 00 57.40 -13 28.4 1.534 2.362 135.2 17.6 11.3 2009 08 24 00 58.15 -14 51.5 1.495 2.356 139.3 16.2 11.2 2009 08 29 00 58.23 -16 18.8 1.461 2.349 143.3 14.9 11.1 2009 09 03 00 57.65 -17 48.9 1.432 2.343 146.9 13.6 11.0 2009 09 08 00 56.44 -19 20.0 1.410 2.337 149.9 12.5 11.0 2009 09 13 00 54.62 -20 50.5 1.393 2.331 152.2 11.6 10.9 2009 09 18 00 52.26 -22 18.3 1.382 2.325 153.4 11.1 10.9 2009 09 23 00 49.45 -23 41.3 1.378 2.320 153.4 11.2 10.8 2009 09 28 00 46.32 -24 57.6 1.380 2.314 152.2 11.6 10.9 2009 10 03 00 43.01 -26 05.5 1.388 2.309 150.0 12.5 10.9 2009 10 08 00 39.65 -27 03.8 1.402 2.304 147.0 13.7 11.0 2009 10 13 00 36.39 -27 51.7 1.421 2.300 143.4 15.0 11.0 2009 10 18 00 33.36 -28 28.5 1.445 2.295 139.5 16.4 11.1 2009 10 23 00 30.72 -28 54.2 1.473 2.291 135.4 17.7 11.2 2009 10 28 00 28.58 -29 08.9 1.506 2.287 131.3 19.0 11.3 2009 11 02 00 27.01 -29 13.3 1.543 2.284 127.2 20.3 11.4 2009 11 07 00 26.08 -29 08.1 1.583 2.280 123.1 21.4 11.5 2009 11 12 00 25.81 -28 54.0 1.625 2.277 119.1 22.3 11.5 2009 11 17 00 26.22 -28 31.9 1.670 2.274 115.2 23.2 11.6 2009 11 22 00 27.33 -28 02.6 1.717 2.272 111.4 23.9 11.7 2009 11 27 00 29.11 -27 26.9 1.766 2.269 107.6 24.5 11.8 2009 12 02 00 31.53 -26 45.6 1.816 2.267 104.1 25.0 11.9 2009 12 07 00 34.55 -25 59.4 1.867 2.265 100.6 25.3 11.9